Other Public Products
Issued by NWS Grand Forks, ND

Home | Current Version | Previous Version | Graphics & Text | Print | Product List | Glossary On
Versions: 1 2 3 4 5 6 7 8 9 10 11 12 13 14 15 16 17 18 19 20 21 22 23 24 25 26 27 28 29 30 31 32 33 34 35 36 37 38 39 40 41 42 43 44 45 46 47 48 49 50
000
FPUS83 KFGF 220631
OPUFGF
PRAIRIE TO PINES WEATHER ROUNDUP
NATIONAL WEATHER SERVICE EASTERN NORTH DAKOTA/GRAND FORKS ND
100 AM CDT TUE JUL 22 2014

 **SATELLITE DATA USED TO AUGMENT SKY COVER AT AUTOMATED STATIONS**
 *****  WEATHER ACROSS EASTERN NORTH DAKOTA  *****

CITY           SKY/WX    TMP DP  RH WIND       PRES   REMARKS
GRAND FORKS    LGT RAIN  66  64  94 NW9       29.83S
6HR MIN TEMP:  65; 6HR MAX TEMP:  87; 6HR PCP:  2.78;

GRAND FORKS AF CLOUDY    64  64 100 NW10      29.85F
GRAND CITY NWS   N/A     70 N/A N/A NW12        N/A
BUXTON           N/A     67  66  99 NW10        N/A
DEVILS LAKE    CLOUDY    64  59  82 N14       29.92S
6HR MIN TEMP:  64; 6HR MAX TEMP:  66; 6HR PCP:  1.24;

FARGO          LGT RAIN  67  65  93 N25G31    29.74F
6HR MIN TEMP:  67; 6HR MAX TEMP:  87; 6HR PCP:  0.51;

WAHPETON ARPT  CLOUDY    66  61  82 W5        29.82F
$$

 *****  WEATHER ACROSS CENTRAL AND WESTERN NORTH DAKOTA  *****

CITY           SKY/WX    TMP DP  RH WIND       PRES   REMARKS
JAMESTOWN      CLOUDY    67  65  93 NW9       29.91R
6HR MIN TEMP:  66; 6HR MAX TEMP:  83; 6HR PCP:  0.24;

BISMARCK       CLEAR     64  62  93 NW8       29.99R
6HR MIN TEMP:  64; 6HR MAX TEMP:  69; 6HR PCP:  0.01;

MINOT          MOCLDY    63  61  93 NW8       29.98R
6HR MIN TEMP:  62; 6HR MAX TEMP:  68;

MINOT AFB      MOCLDY    62  62 100 NW8       29.98S
6HR MIN TEMP:  62; 6HR MAX TEMP:  68;

GARRISON         N/A     63  62  97 NW6       30.00R
6HR MIN TEMP:  63; 6HR MAX TEMP:  66; 6HR PCP:  0.03;

WILLISTON      CLEAR     62  58  86 NE5       30.04R
6HR MIN TEMP:  60; 6HR MAX TEMP:  77;

DICKINSON      CLEAR     61  58  90 N6        30.03R
6HR MIN TEMP:  60; 6HR MAX TEMP:  73;

HETTINGER      MOCLDY    62  60  93 W7        30.12R FOG
6HR MIN TEMP:  60; 6HR MAX TEMP:  77;

$$

 *****  OTHER OBSERVATIONS NORTHEAST NORTH DAKOTA  *****

CITY           SKY/WX    TMP DP  RH WIND       PRES   REMARKS
WALHALLA         N/A     63  63 100 NW7         N/A
LANGDON        FAIR      61  59  94 NW10      29.93S
CAVALIER       FAIR      64  63  94 NW10      29.89R
GRAFTON        LGT RAIN  64  64 100 NW14      29.86R
CANDO          FAIR      59  59 100 NW6       29.95F
FORT TOTTEN      N/A     65  64  97 N7        29.95
ROLLA          MOCLDY    59  59 100 NW6       29.98F
RUGBY          FAIR      59  59 100 N7        29.96S
 ***** THE ABOVE OBSERVATIONS ARE NON NWS ARE NOT QUALITY
        CONTROLLED AND MAY MIS-REPORT RAIN FOR SNOW...
$$

 *****  OTHER OBSERVATIONS SOUTHEAST NORTH DAKOTA *****

CITY           SKY/WX    TMP DP  RH WIND       PRES   REMARKS
COOPERSTOWN    NOT AVBL
VALLEY CITY    MOCLDY    64  64 100 NW5       29.89R
OAKES          NOT AVBL
GWINNER          N/A     66  66 100 W8        29.90R
SHEYENNE NWR     N/A     68  65  89 N7        29.95S
BUFFALO        NOT AVBL
WYNDMERE       NOT AVBL
 ***** THE ABOVE OBSERVATIONS ARE NON NWS ARE NOT QUALITY
       CONTROLLED AND MAY MIS-REPORT RAIN FOR SNOW...
$$

  *****  WEATHER ACROSS NORTHERN MINNESOTA  *****

CITY           SKY/WX    TMP DP  RH WIND       PRES   REMARKS
FLAG ISLAND    RAIN      66  63  88 NE8       29.76F
WARROAD        CLOUDY    64  61  88 N15G22    29.74F
ROSEAU         LGT RAIN  63  57  82 N13G22    29.73F
HALLOCK        DRIZZLE   64  63  94 NW13G21   29.85R
THF RVR FALLS  CLOUDY    64  63  94 NE7       29.79R
6HR MIN TEMP:  64; 6HR MAX TEMP:  86; 6HR PCP:  1.88;

HALSTAD        NOT AVBL
FOSSTON        RAIN      64  63  94 W12       29.77R
BAUDETTE       RAIN      65  64  97 N23G30    29.73F
6HR MIN TEMP:  64; 6HR MAX TEMP:  79; 6HR PCP:  4.02;

WASKISH        CLOUDY    64  64 100 N5G21     29.68S
CROOKSTON      NOT AVBL
$$
  *****  WEATHER ACROSS CENTRAL AND WEST MINNESOTA  *****

CITY           SKY/WX    TMP DP  RH WIND       PRES   REMARKS
BEMIDJI        CLOUDY    66  65  96 SW6       29.76R
PARK RAPIDS    CLOUDY    66  65  96 SW14      29.77R
6HR MIN TEMP:  66; 6HR MAX TEMP:  86; 6HR PCP:  0.24;

WADENA         CLOUDY    64  63  94 W7        29.80R
DETROIT LAKES  CLOUDY    68  64  88 W17       29.79F
MOORHEAD       CLOUDY    68  68 100 N13G18    29.80R
FERGUS FALLS   CLOUDY    66  64  94 SW5       29.81F
ELBOW LAKE     FAIR      66  65  96 W7        29.85R
MORRIS MN      CLOUDY    66  64  94 CALM      29.84R
STAPLES        CLOUDY    64  63  94 S6        29.77F
WHEATON        MOCLDY    64  63  94 CALM      29.86R
$$
  *****  WEATHER ELSEWHERE ACROSS MINNESOTA  *****

CITY           SKY/WX    TMP DP  RH WIND       PRES   REMARKS
DULUTH         TSTM      72  65  78 W25G49    29.88R VSB 3/4
6HR MIN TEMP:  78; 6HR MAX TEMP:  86; 6HR PCP: TRACE;

INTRNTL FALLS  RAIN      68  66  93 E10       29.69F
6HR MIN TEMP:  67; 6HR MAX TEMP:  85; 6HR PCP:  1.08;

ELY            CLOUDY    79  72  78 S16       29.75F
CLOQUET        TSTM      68  63  83 SW14G36   29.87R
BRAINERD       CLOUDY    67  64  90 CALM      29.77F
6HR MIN TEMP:  65; 6HR MAX TEMP:  84; 6HR PCP:  0.24;

HIBBING        LGT RAIN  69  65  86 VRB7      29.83R
6HR MIN TEMP:  74; 6HR MAX TEMP:  86; 6HR PCP:  0.10;

ALEXANDRIA     CLOUDY    67  50  55 SW6       29.84S
6HR MIN TEMP:  66; 6HR MAX TEMP:  85; 6HR PCP:  0.78;

SAINT CLOUD    CLOUDY    73  66  78 NE6       29.79R
6HR MIN TEMP:  75; 6HR MAX TEMP:  88;

MINNEAPOLIS    MOCLDY    82  75  79 S12       29.81S
6HR MIN TEMP:  81; 6HR MAX TEMP:  88;

$$

  *****  WEATHER ACROSS SOUTH DAKOTA  *****

CITY           SKY/WX    TMP DP  RH WIND       PRES   REMARKS
SIOUX FALLS    CLEAR     78  76  93 CALM      29.84R
6HR MIN TEMP:  78; 6HR MAX TEMP:  87;

BROOKINGS      NOT AVBL
WATERTOWN      CLEAR     72  63  73 N14       29.88R
6HR MIN TEMP:  72; 6HR MAX TEMP:  84;

HURON          CLEAR     70  62  76 N12       29.86R
6HR MIN TEMP:  70; 6HR MAX TEMP:  92;

SISSETON         N/A     69  64  84 N12       29.85R
ABERDEEN       CLEAR     65  63  93 NW7       29.90R
6HR MIN TEMP:  65; 6HR MAX TEMP:  87;

MITCHELL       CLEAR     76  69  79 NW8       29.86R
PIERRE         PTCLDY    70  64  81 N12       29.94R
6HR MIN TEMP:  70; 6HR MAX TEMP:  98;

MOBRIDGE       PTCLDY    63  61  93 CALM      29.95R
RAPID CITY     MOCLDY    69  63  81 NW8       30.11S
6HR MIN TEMP:  69; 6HR MAX TEMP:  89; 6HR PCP: TRACE;

$$

  *****  SOME WEATHER IN NEARBY STATES *****

CITY           SKY/WX    TMP DP  RH WIND       PRES   REMARKS
GLASGOW MT     PTCLDY    64  56  75 NE9       30.05R
6HR MIN TEMP:  64; 6HR MAX TEMP:  79;

GREAT FALLS MT PTCLDY    61  42  49 CALM      30.10R
6HR MIN TEMP:  61; 6HR MAX TEMP:  81;

CHEYENNE WY    CLEAR     68  40  35 W5        30.25R
6HR MIN TEMP:  65; 6HR MAX TEMP:  85;

SCOTTSBLUFF NE PTCLDY    68  59  73 E5        30.06R
6HR MIN TEMP:  68; 6HR MAX TEMP:  88;

OMAHA NE       CLOUDY    85  74  69 SE10      29.88R HX  92
6HR MIN TEMP:  84; 6HR MAX TEMP:  95;

DES MOINES IA  PTCLDY    82  75  79 S13G21    29.92R
6HR MIN TEMP:  82; 6HR MAX TEMP:  90;

DAVENPORT IA   CLEAR     75  68  78 S12       30.02S
6HR MIN TEMP:  75; 6HR MAX TEMP:  82;

CHICAGO IL     CLEAR     73  63  70 S7        30.05S
6HR MIN TEMP:  71; 6HR MAX TEMP:  82;

EAU CLAIRE WI  MOCLDY    78  70  76 S13       29.87F
6HR MIN TEMP:  78; 6HR MAX TEMP:  86; 6HR PCP: TRACE;

LA CROSSE WI   CLOUDY    81  69  67 S12       29.91S
6HR MIN TEMP:  80; 6HR MAX TEMP:  87;

$$

  *****  SOME NATIONAL WEATHER *****

CITY           SKY/WX    TMP DP  RH WIND       PRES   REMARKS
LA GUARDIA NY  CLEAR     74  60  61 SW7       30.16S



USA.gov is the U.S. government's official web portal to all federal, state and local government web resources and services.